Ukiah, CA

5:52 PM PDT on September 30, 2016 (GMT -0700)
Ukiah Municipal

Weather History for KUKI - November, 2011

Change the Weather History Date:

Friday, November 11, 2011

  Actual Average Record
Temperature  
Mean Temperature 47 °F 52 °F  
Max Temperature 55 °F 65 °F 85 °F (1930)
Min Temperature 38 °F 40 °F 25 °F (1978)
Degree Days  
Heating Degree Days 18 13  
Month to date heating degree days 178 124  
Since 1 July heating degree days 293 324  
Cooling Degree Days 0 0  
Month to date cooling degree days 0 0  
Year to date cooling degree days 895 835  
Moisture  
Dew Point 45 °F    
Average Humidity 83    
Maximum Humidity 100    
Minimum Humidity 66    
Precipitation  
Precipitation 0.05 in 0.12 in 1.73 in (1973)
Month to date precipitation 0.80 1.35  
Year to date precipitation 26.45 27.48  
Since 1 July precipitation 4.41  
Snow  
Snow 0.00 in - - ()
Month to date snowfall 0.0  
Since 1 July snowfall 0.0  
Since 1 September snowfall 0.0  
Snow Depth 0.00 in    
Sea Level Pressure  
Sea Level Pressure 29.80 in    
Wind  
Wind Speed 1 mph (South)    
Max Wind Speed 5 mph    
Max Gust Speed -    
Visibility 8 miles    
Events Rain    
T = Trace of Precipitation, MM = Missing Value Source: NWS Daily Summary

Daily Weather History Graph

Daily Weather History Graph

Search for Another Location

Airport or City:

Trip Planner

Search our weather history database for the weather conditions in past years. The results will help you decide how hot, cold, wet, or windy it might be!

Date:

Astronomy

Nov. 11, 2011 Rise Set
Actual Time 6:51 AM PST 5:01 PM PST
Civil Twilight 6:22 AM PST 5:30 PM PST
Nautical Twilight 5:50 AM PST 6:02 PM PST
Astronomical Twilight 5:19 AM PST 6:33 PM PST
Moon 5:35 PM PST (11/11) 7:44 AM PST (11/11)
Length of Visible Light 11h 07m
Length of Day
10h 10m
Full, 99% of the Moon is Illuminated
Nov 11
Full
Nov 18
Last Quarter
Nov 24
New
Dec 2
First Quarter
Dec 10
Full

Hourly Weather History & Observations

Time (PST) Temp. Windchill Dew Point Humidity Pressure Visibility Wind Dir Wind Speed Gust Speed Precip Events Conditions
12:56 AM 39.0 °F - 36.0 °F 89% 29.88 in 10.0 mi Calm Calm - N/A   Clear
1:56 AM 42.1 °F - 36.0 °F 79% 29.87 in 10.0 mi Calm Calm - N/A   Clear
2:56 AM 39.9 °F - 37.0 °F 89% 29.86 in 10.0 mi Calm Calm - N/A   Clear
3:56 AM 39.2 °F - 37.4 °F 93% 29.82 in 10.0 mi Calm Calm - N/A   Clear
4:56 AM 39.0 °F - 37.0 °F 93% 29.79 in 10.0 mi Calm Calm - N/A   Clear
5:56 AM 39.2 °F - 37.4 °F 93% 29.78 in 10.0 mi Calm Calm - N/A   Clear
6:56 AM 37.9 °F - 37.0 °F 97% 29.77 in 9.0 mi Calm Calm - N/A   Clear
7:56 AM 41.0 °F 39.0 °F 37.9 °F 89% 29.77 in 10.0 mi Variable 3.5 mph - N/A   Scattered Clouds
8:56 AM 44.1 °F - 39.9 °F 85% 29.79 in 10.0 mi Calm Calm - N/A   Overcast
9:56 AM 51.1 °F - 41.0 °F 68% 29.79 in 10.0 mi Calm Calm - N/A   Overcast
10:56 AM 51.1 °F - 43.0 °F 74% 29.79 in 10.0 mi Variable 5.8 mph - 0.02 in Rain Light Rain
11:56 AM 54.0 °F - 44.1 °F 69% 29.79 in 10.0 mi South 4.6 mph - 0.00 in   Overcast
12:56 PM 54.0 °F - 45.0 °F 72% 29.77 in 10.0 mi Calm Calm - N/A   Overcast
1:56 PM 55.4 °F - 44.6 °F 67% 29.76 in 10.0 mi South 3.5 mph - N/A   Overcast
2:40 PM 53.6 °F - 48.2 °F 82% 29.77 in 2.5 mi SSE 5.8 mph - 0.01 in Rain Light Rain
2:56 PM 52.0 °F - 48.9 °F 89% 29.77 in 2.5 mi SSE 5.8 mph - 0.01 in Rain Light Rain
3:05 PM 51.8 °F - 50.0 °F 94% 29.78 in 1.8 mi SSE 4.6 mph - 0.01 in Rain Light Rain
3:12 PM 51.8 °F - 50.0 °F 94% 29.78 in 2.5 mi South 3.5 mph - 0.01 in Rain Light Rain
3:21 PM 51.8 °F - 51.8 °F 100% 29.77 in 4.0 mi South 4.6 mph - N/A Rain Light Rain
3:56 PM 51.1 °F - 50.0 °F 96% 29.76 in 10.0 mi SSW 4.6 mph - 0.02 in   Overcast
4:56 PM 52.0 °F - 50.0 °F 93% 29.75 in 10.0 mi SE 3.5 mph - 0.00 in   Overcast
5:27 PM 51.8 °F - 48.2 °F 88% 29.77 in 10.0 mi SW 3.5 mph - N/A   Overcast
5:56 PM 52.0 °F - 48.0 °F 86% 29.77 in 10.0 mi Calm Calm - N/A   Overcast
6:56 PM 52.0 °F - 50.0 °F 93% 29.79 in 10.0 mi Calm Calm - N/A   Overcast
7:56 PM 50.0 °F - 48.9 °F 96% 29.80 in 10.0 mi ESE 3.5 mph - N/A   Overcast
8:56 PM 51.1 °F - 48.9 °F 92% 29.82 in 10.0 mi Calm Calm - N/A   Overcast
9:04 PM 51.8 °F - 48.2 °F 88% 29.83 in 10.0 mi Calm Calm - N/A   Overcast
9:26 PM 51.8 °F - 48.2 °F 88% 29.84 in 10.0 mi Calm Calm - 0.00 in   Overcast
9:56 PM 51.1 °F - 50.0 °F 96% 29.84 in 8.0 mi Calm Calm - 0.00 in Rain Light Rain
10:06 PM 51.8 °F - 48.2 °F 88% 29.84 in 10.0 mi Calm Calm - 0.00 in   Overcast
10:42 PM 48.2 °F - 48.2 °F 100% 29.84 in 7.0 mi South 3.5 mph - 0.00 in   Mostly Cloudy
10:56 PM 48.0 °F - 48.0 °F 100% 29.83 in 5.0 mi Calm Calm - 0.00 in   Partly Cloudy
11:34 PM 48.2 °F - 46.4 °F 93% 29.83 in 5.0 mi Calm Calm - N/A   Mostly Cloudy
11:56 PM 46.9 °F - 46.0 °F 97% 29.82 in 8.0 mi Calm Calm - N/A   Overcast